Flag for Australia Weather past 2 weeks in Newman, Western Australia, Australia

Now
79 °F

Pleasantly warm.


Feels Like: 78 °F
Forecast: 56 / 81 °F
Wind: 14 mph from East

Location: Newman Aerodrome

Current Time: Apr 28, 2015 at 3:05:11 PM

Latest Report: Apr 28, 2015 at 2:00 PM


Visibility: N/A

Pressure: 29.98 "Hg

Humidity: 21%

Dew point: 36 °F

Location of NewmanLocation

Historic Weather in Newman — Graph

°F

Newman temperature yesterday

Maximum temperature yesterday: 80 °F (at 3:00 PM)
Minimum temperature yesterday: 58 °F (at 6:00 AM)
Average temperature yesterday: 68 °F

Past Weeks' High & Low Weather Summary

 TemperatureHumidityPressure
High89 °F (Apr 13, 5:00 PM)79% (Apr 22, 6:00 AM)30.14 "Hg (Apr 22, 6:00 AM)
Low49 °F (Apr 22, 5:00 AM)21% (Apr 28, 2:00 PM)29.75 "Hg (Apr 13, 5:00 PM)
Average68 °F50%30.00 "Hg
* Reported Apr 13 2:00 PM — Apr 28 2:00 PM, Newman, Weather by CustomWeather, © 2015

Note: Actual official high and low records may vary slightly from our data, if they occured in-between our weather recording intervals... More about our weather records

Advertising

Newman weather history for previous 24 hours

 ConditionsComfort  
Time TempWeatherWind HumidityBarometerVisibility
2:00 PM
Tue, Apr 28
79 °FPleasantly warm.14 mph21%29.98 "HgN/A
12:00 PM77 °FPleasantly warm.13 mph23%30.04 "HgN/A
11:00 AM75 °FMild.14 mph26%30.07 "HgN/A
9:00 AM68 °FMild.10 mph33%30.11 "HgN/A
8:00 AM63 °FMild.12 mph40%30.11 "HgN/A
6:00 AM55 °FCool.5 mph57%30.07 "HgN/A
5:00 AM56 °FRefreshingly cool.5 mph53%30.07 "HgN/A
3:00 AM60 °FRefreshingly cool.6 mph43%30.07 "HgN/A
2:00 AM61 °FRefreshingly cool.5 mph43%30.07 "HgN/A
12:00 AM63 °FMild.6 mph42%30.10 "HgN/A
11:00 PM
Mon, Apr 27
64 °FMild.7 mph42%30.11 "HgN/A
9:00 PM65 °FMild.7 mph43%30.11 "HgN/A
8:00 PM68 °FMild.7 mph39%30.10 "HgN/A
6:00 PM74 °FMild.9 mph29%30.06 "HgN/A
5:00 PM78 °FPleasantly warm.13 mph24%30.05 "HgN/A
3:00 PM80 °FPleasantly warm.8 mph22%30.04 "HgN/A
Weather by CustomWeather, © 2015

See weather overviewHow to use our weather pages